Location: ???????
(55.3754°N, 39.3545°E)
Time: 21:33:01
(UTC+00:00)

IKONOS-2 - Pass Details

Date: 14 April 2026
Orbit: 572 x 579 km, 98.1° (Epoch: 16 May)

Event Time Altitude Azimuth Distance (km) Brightness Sun altitude
Rises 19:37:09 0° 17° (NNE) 2,797 8.6 -21.3°
Reaches altitude 10° 19:39:20 10° 21° (NNE) 1,895 7.6 -21.5°
Enters shadow 19:43:19 60° 96° (E) 663 4.5 -21.7°
